Location: Unspecified
(22.6800°N, 112.2000°E)
Time: 01:34:25
(UTC+08:00)

Courier 1B Rocket - Pass Details

Date: 06 August 2021
Orbit: 920 x 1202 km, 28.3° (Epoch: 17 September)

Event Time Altitude Azimuth Distance (km) Brightness Sun altitude
Exits shadow 04:40:05 17° 288° (WNW) 2,244 6.5 -18.7°
Maximum altitude 04:45:17 89° 19° (NNE) 950 4.9 -17.7°
Drops below altitude 10° 04:51:34 10° 109° (ESE) 2,613 7.9 -16.4°
Sets 04:54:08 0° 109° (ESE) 3,545 8.6 -15.8°
